Location: Chuathbaluk
(61.5726°N, 159.2454°W)
Time: 04:00:11
(UTC+00:00)

S-56A Canister/Altair - Pass Details

Date: 04 December 2020
Orbit: 633 x 2499 km, 38.9° (Epoch: 23 January)

Event Time Altitude Azimuth Distance (km) Brightness Sun altitude
Rises 04:53:05 0° 217° (SW) 5,861 12.6 -22.5°
Reaches altitude 10° 04:59:05 10° 200° (SSW) 4,551 11.7 -23.2°
Maximum altitude 05:05:33 16° 168° (SSE) 3,623 10.8 -24.0°
Enters shadow 05:09:27 13° 143° (SE) 3,584 10.6 -24.5°
Drops below altitude 10° 05:10:59 10° 134° (SE) 3,702 - -24.7°
Sets 05:15:03 0° 114° (ESE) 4,332 - -25.1°
